Weather Roundup
Issued by NWS Chicago, IL

Home | Current Version | Previous Version | Text Only | Print | Product List | Glossary On
Versions: 1 2 3 4 5 6 7 8 9 10 11 12 13 14 15 16 17 18 19 20 21 22 23 24 25 26 27 28 29 30 31 32 33 34 35 36 37 38 39 40 41 42 43 44 45 46 47 48 49 50
000
NZUS59 KLOT 062108
HRRLOT

CHICAGO AREA WEATHER ROUNDUP
NATIONAL WEATHER SERVICE CHICAGO/ROMEOVILLE IL
400 PM CDT FRI MAY 06 2016

NOTE: "FAIR" INDICATES FEW OR NO CLOUDS BELOW 12,000 FEET WITH NO
SIGNIFICANT WEATHER AND/OR OBSTRUCTIONS TO VISIBILITY.

* THESE STATIONS ARE NOT UNDER NWS QUALITY CONTROL. THEY ALSO MAY NOT
  REPORT WEATHER SUCH AS PRECIPITATION OR FOG.

ILZ005-006-012>014-019>023-062200-
NORTHEAST ILLINOIS

CITY           SKY/WX    TMP DP  RH WIND       PRES   REMARKS
OHARE          MOSUNNY   80  48  32 SW8       29.82F
MIDWAY         MOSUNNY   81  45  28 W13G21    29.84F HX  80
AURORA         SUNNY     82  49  31 W16       29.84F HX  81
LANSING*       MOSUNNY   76  44  32 SW9       29.87F
JOLIET*        SUNNY     84  48  28 W12G17    29.85F HX  82
WAUKEGAN       SUNNY     82  49  31 SW9       29.81F HX  81
DUPAGE AIRPORT SUNNY     81  49  32 W14       29.83F HX  80
WHEELING       SUNNY     81  46  29 SW12G17   29.83F HX  80
KANKAKEE*      MOSUNNY  N/A N/A N/A W12       29.87F
MORRIS*        SUNNY     83  45  26 W13G20    29.84F HX  81
LEWIS AIRPORT* SUNNY     82  43  25 W12       29.84F HX  80
$$

WIZ051-052-058>065-066-070>072-062200-
SOUTHEAST WISCONSIN

CITY           SKY/WX    TMP DP  RH WIND       PRES   REMARKS
MILWAUKEE      MOSUNNY   85  42  22 NW10G18   29.79F HX  82
KENOSHA*       SUNNY     83  49  30 W14       29.80F HX  81
RACINE*        SUNNY     71  44  37 SE9       29.82F
BURLINGTON     SUNNY     82  43  24 W8G16     29.81F HX  80
WAUKESHA       SUNNY     79  45  29 W8        29.81F
WEST BEND      SUNNY     82  36  18 W13       29.79F HX  80
$$

INZ001>003-010>013-019-020-062200-
NORTHWEST INDIANA

CITY           SKY/WX    TMP DP  RH WIND       PRES   REMARKS
GARY*          MOSUNNY   77  54  44 SW9       29.87F
MICHIGAN CITY* NOT AVBL
RENSSELAER*    NOT AVBL
VALPARAISO     SUNNY     75  43  31 SW12      29.88F
$$

LMZ740>746-062200-
SOUTHERN LAKE MICHIGAN

STATION/POSITION TIME  SKY/WX   TEMP WIND        PRES    VSBY
                                AIR  DIR/SP/G
                 (UTC)          (F)  (DEG/KT/KT) (MB)    (MI)
HARRISON CRIB    2000            67  180/ 10/ 10   N/A
BURNHAM HARBOR   2100            79  190/ 10/ 14   N/A
CALUMET HARBOR   2000            76  220/  8/ 12 1011.1F
BURNS HARBOR     2000            72  210/  6/ 13 1012.5F
MICHIGAN CITY    2000            64  360/  2/  3   N/A
$$

ABBREVIATIONS USED IN REMARKS
   TC - TEMPERATURE IN CELSIUS
  WCI - WIND CHILL INDEX
   HX - HEAT INDEX
  VSB - VISIBILITY
$$



USA.gov is the U.S. government's official web portal to all federal, state and local government web resources and services.